Showing default

SWC-1, 68540

Orbit data source: Space-Track

SWC-1, 68540 is a Saudi payload satellite in HEO that was launched on Wed, 01 Apr 2026 UTC via an SLS BLOCK 1 launch vehicle from the Air Force Eastern Test Range (AFETR). Payload-class satellites include a variety of spacecraft equipped with specific instruments for various scientific and technological missions. These include communications satellites like Starlink; space stations such as the ISS; scientific satellites like the Hubble; Earth observation satellites from companies like Planet Labs, Umbra, and HawkEye 360; GPS; miniature CubeSats for education and research; and military/defense satellites.

Loading next visibility...
Identifier
68540, 2026-069C
Orbit
HEO
Country
Flag of SASA / SAUD
Related business
None
Manufacturer
SAUDSA
Mission
Operational spacecraft
Bus & Motor
CUBESAT 12U, Unknown motor
Mass
~20 kg wet, ~20 kg dry
Launch date (UTC)
2026-04-01 (4 days ago)
Launch vehicle
SLS BLOCK 1
Launch site
Air Force Eastern Test Range (AFETR)
Object type
Payload
Rocket body
Debris
Shape & HBR
Unknown
Radar Cross Section
RCS unknown

Expand to show TLE details & history
Last TLE update: 3 days ago

TLE from 3 days ago
0 SWC-1
1 68540U 26069C   26092.51428241 -.00154659  00000-0 -17117+1 0  9991
2 68540  28.3462 359.8168 8375109  77.1630 217.7352  1.01595625    08
Epoch: 2026-04-02T12:20Z
TLE epoch observation values (Epoch: 2026-04-02T12:20:34.000Z)
Latitude
-28.15267°
Longitude
-113.71173°
Altitude
68,038.484 km
Speed
1.085 km/s
True Right ascension
17h 29m 09s
True Declination
-28° 08' 20"
Sunlit
Object was in daylight at epoch
Visualization orbit readout
Latitude
Unknown
Longitude
Unknown
Altitude
Unknown
Speed
Unknown
Apparent Right ascension
Unknown
Apparent Declination
Unknown
Sunlit
N/A
Visualization observer readout
Local Sidereal Time
23:09:13
Azimuth
Unknown
Elevation
Unknown
Doppler factor
Unknown
Orbital elements
Apogee altitude
70,433.398 km
Perigee altitude
414.224 km
Semi-major axis
41,801.948 km
Eccentricity
0.83751
Inclination
28.3462°
RAAN
359.8168°
Arg. of periapsis
77.163°
True anomaly
186.2299°
Mean anomaly
217.7352°
Eccentric anomaly
200.74117°
Mean motion
0.25395 °/min
Orbital period
1,417.6 mins
BSTAR
-1.7117
Loading maneuver chart data...
Computing Atmospheric mass density...
Loading historical data...
Loading historical data...
Loading historical data...
Loading historical data...
Loading historical data...
Loading historical data...
Loading historical data...
Other satellites on launch #69 in the year 2026 (2026-04-01 UTC)

Documentation

Showing up to 5 results
|